Погода в Урусове

Россия / Республика Мордовия     55°01′47″N   46°16′01″E
темп.,
°C
ветер,
м/с
пор.,
м/с
влажн.,
%
обл.,
%
осадки,
мм/ч
давл.,
гПа
погр.,
м
18 мая, вт
вт1800:00+16ююв228367 0.0 101617
03:00+16ююв3478100 0.0 101665
06:00+18в257254 0.0 1016119
09:00+24вюв46586 0.0 1016411
12:00+28вюв47395 0.0 10151247
15:00+29юв45385 0.0 10151479
18:00+25в35525 0.0 101483
21:00+19в411625 0.0 1015175
19 мая, ср
ср1900:00+18в411845 0.0 1015188
03:00+16вюв4138113 0.0 1015266
06:00+17вюв5137610 0.0 1015336
09:00+22вюв711625 0.0 1015579
12:00+26вюв810510 0.0 1015978
15:00+26вюв79530 0.0 10141314
18:00+23вюв612600 0.0 1014461
21:00+18вюв414660 0.0 1014313
20 мая, чт
чт2000:00+18вюв514670 0.0 1014386
03:00+17юв615710 0.0 1013444
06:00+17юв715750 0.0 1013550
09:00+21юв710610 0.0 1013851
12:00+24ююв9125531 0.0 10131727
15:00+23ю71162100 0.2 10121123
18:00+21ююв496987 0.1 1012596
21:00+16юв228582 0.6 101234
21 мая, пт
пт2100:00+16ю228479 0.0 101232
03:00+14ююз2286100 0.1 101215
06:00+16ююз2481100 0.0 1012175
09:00+18юз3473100 0.0 1012599
12:00+20ююз456535 1.6 10121212
15:00+19зюз576798 3.1 10121372
18:00+18юз48690 0.2 1013609
21:00+14зюз378292 0.3 1015126
22 мая, сб
сб2200:00+12зюз398960 0.0 1016274
03:00+10зюз3796100 0.0 1018204
06:00+12зюз3589100 0.0 1019252
09:00+16зюз4574100 0.0 1020782
12:00+19зсз3461100 0.0 10201214
15:00+14сз3588100 0.8 1022207
18:00+14св0189100 0.6 102145
21:00+12зюз0198100 9.4 102268